contact:dominique.lefevre@mio.osupytheas.fr, maurice.libes@osupytheas.fr, didier.mallarino@osupytheas.fr
Project:EMSO http://www.emso-fr.org/EMSO-France
Depth: 2436.0 m
Title:EMSO Ligure Ouest : Data MII capteur AQUADOPP
Date,Latitude,Longitude,X_East,Y_North,Z_Up,Amplitude_X,Amplitude_Y,Amplitude_Z,Batterie,SoundSpeed,Heading,Pitch,Roll,Pressure,TIS,Speed,Direction
, degrees North, degrees East, m.s-1, m.s-1,m.s-1, 1, 1, 1, Volt, m.s-1, degree, degree, degree, dbar, degree_C, m.s-1, degree
2023-07-30T00:04:03,42.805,6.029,0.0,-0.026,-0.033,103.0,102.0,102.0,13.4,1505.2,327.3,-0.8,1.8,2471.481,13.28,0.026,180.0
2023-07-30T00:07:03,42.805,6.029,-0.007,-0.009,-0.034,102.0,102.0,101.0,13.3,1505.2,323.4,-0.8,1.8,2471.425,13.28,0.011,217.9
2023-07-30T00:10:03,42.805,6.029,0.0,-0.027,-0.052,104.0,102.0,102.0,13.4,1505.2,324.5,-0.8,1.8,2471.405,13.29,0.026,180.0
2023-07-30T00:13:03,42.805,6.029,0.021,-0.021,-0.031,102.0,103.0,102.0,13.3,1505.2,327.1,-0.8,1.8,2471.406,13.29,0.029,135.0
2023-07-30T00:16:03,42.805,6.029,0.0,-0.009,-0.043,104.0,101.0,102.0,13.3,1505.2,345.0,-0.8,1.8,2471.396,13.29,0.009,180.0
2023-07-30T00:19:03,42.805,6.029,0.0,-0.03,-0.048,102.0,101.0,102.0,13.4,1505.2,333.4,-0.8,1.8,2471.391,13.29,0.03,180.0
2023-07-30T00:22:03,42.805,6.029,0.014,-0.011,-0.032,103.0,103.0,101.0,13.3,1505.2,354.6,-0.8,1.8,2471.378,13.29,0.017,128.2
2023-07-30T00:25:03,42.805,6.029,0.011,-0.026,-0.018,101.0,102.0,102.0,13.4,1505.2,347.3,-0.8,1.8,2471.402,13.29,0.028,157.1
2023-07-30T00:28:03,42.805,6.029,-0.014,-0.004,-0.029,104.0,103.0,100.0,13.4,1505.2,341.9,-0.8,1.8,2471.39,13.29,0.014,254.1
2023-07-30T00:31:03,42.805,6.029,-0.006,-0.004,-0.034,103.0,102.0,101.0,13.4,1505.2,333.4,-0.8,1.8,2471.383,13.29,0.007,236.3
2023-07-30T00:34:03,42.805,6.029,0.01,-0.026,-0.021,104.0,102.0,101.0,13.3,1505.2,349.1,-0.7,1.8,2471.389,13.29,0.027,159.0
2023-07-30T00:37:03,42.805,6.029,-0.012,-0.024,-0.053,102.0,101.0,102.0,13.3,1505.2,344.5,-0.7,1.8,2471.357,13.29,0.026,206.6
2023-07-30T00:40:03,42.805,6.029,0.011,-0.01,-0.03,102.0,102.0,101.0,13.3,1505.2,334.4,-0.8,1.8,2471.369,13.29,0.014,132.3
2023-07-30T00:43:03,42.805,6.029,0.026,-0.035,-0.021,102.0,103.0,102.0,13.3,1505.2,333.4,-0.8,1.8,2471.406,13.29,0.043,143.4
2023-07-30T00:46:03,42.805,6.029,0.003,-0.022,-0.037,102.0,102.0,101.0,13.4,1505.2,332.9,-0.8,1.8,2471.383,13.29,0.022,172.2
2023-07-30T00:49:03,42.805,6.029,-0.001,0.007,-0.022,102.0,103.0,102.0,13.4,1505.2,353.0,-0.8,1.8,2471.391,13.29,0.007,351.9
2023-07-30T00:52:03,42.805,6.029,0.011,-0.011,0.005,102.0,103.0,102.0,13.4,1505.2,347.5,-0.8,1.8,2471.405,13.29,0.015,135.0
2023-07-30T00:55:03,42.805,6.029,-0.002,-0.022,-0.034,103.0,104.0,101.0,13.4,1505.2,332.1,-0.8,1.8,2471.39,13.29,0.022,185.2
2023-07-30T00:58:03,42.805,6.029,0.0,-0.034,-0.026,103.0,102.0,102.0,13.4,1505.2,344.2,-0.8,1.8,2471.406,13.29,0.034,180.0
2023-07-30T01:04:03,42.805,6.029,0.002,-0.024,-0.033,106.0,103.0,102.0,13.4,1505.2,350.7,-0.8,1.8,2471.454,13.28,0.024,175.2
2023-07-30T01:07:03,42.805,6.029,0.018,-0.013,-0.024,103.0,102.0,101.0,13.4,1505.2,333.9,-0.8,1.8,2471.426,13.28,0.022,125.8
2023-07-30T01:10:03,42.805,6.029,-0.006,-0.016,-0.02,103.0,102.0,102.0,13.3,1505.2,334.9,-0.8,1.8,2471.455,13.28,0.017,200.6
2023-07-30T01:13:03,42.805,6.029,0.0,-0.032,-0.038,102.0,102.0,101.0,13.3,1505.2,349.1,-0.7,1.8,2471.425,13.29,0.032,180.0
2023-07-30T01:16:03,42.805,6.029,0.016,-0.012,-0.036,103.0,103.0,101.0,13.4,1505.2,335.1,-0.8,1.8,2471.415,13.29,0.02,126.9
2023-07-30T01:19:03,42.805,6.029,0.012,-0.038,-0.043,103.0,103.0,101.0,13.4,1505.2,334.3,-0.8,1.9,2471.407,13.29,0.039,162.5
2023-07-30T01:22:02,42.805,6.029,0.004,-0.017,-0.042,102.0,103.0,102.0,13.3,1505.2,323.4,-0.7,1.8,2471.44,13.29,0.017,166.8
2023-07-30T01:25:03,42.805,6.029,-0.006,-0.027,-0.051,102.0,102.0,102.0,13.3,1505.2,346.5,-0.7,1.8,2471.424,13.29,0.027,192.5
2023-07-30T01:28:03,42.805,6.029,0.001,-0.026,-0.012,101.0,104.0,102.0,13.4,1505.2,345.3,-0.8,1.8,2471.42,13.29,0.026,177.8
2023-07-30T01:31:03,42.805,6.029,0.002,-0.015,-0.036,101.0,102.0,102.0,13.4,1505.2,327.3,-0.7,1.8,2471.429,13.29,0.015,172.4
2023-07-30T01:34:03,42.805,6.029,0.003,-0.019,-0.016,102.0,102.0,101.0,13.4,1505.2,340.8,-0.7,1.8,2471.387,13.29,0.019,171.0
2023-07-30T01:37:03,42.805,6.029,0.028,-0.069,-0.026,105.0,101.0,103.0,13.4,1505.2,346.8,-0.8,1.8,2471.401,13.29,0.074,157.9
2023-07-30T01:40:03,42.805,6.029,0.003,-0.034,-0.044,103.0,102.0,101.0,13.4,1505.2,332.9,-0.7,1.8,2471.397,13.29,0.034,175.0
2023-07-30T01:43:03,42.805,6.029,0.0,-0.014,-0.031,103.0,102.0,101.0,13.4,1505.2,332.9,-0.8,1.8,2471.423,13.29,0.014,180.0
2023-07-30T01:46:03,42.805,6.029,0.01,-0.042,-0.018,102.0,101.0,104.0,13.4,1505.2,333.4,-0.8,1.8,2471.399,13.29,0.043,166.6
2023-07-30T01:49:03,42.805,6.029,0.021,-0.037,-0.028,103.0,102.0,101.0,13.4,1505.2,333.9,-0.7,1.8,2471.391,13.29,0.042,150.4
2023-07-30T01:52:03,42.805,6.029,0.016,-0.032,-0.036,103.0,103.0,102.0,13.4,1505.2,330.5,-0.8,1.8,2471.418,13.29,0.035,153.4
2023-07-30T01:55:03,42.805,6.029,0.02,-0.027,-0.045,103.0,102.0,102.0,13.3,1505.2,330.2,-0.8,1.8,2471.42,13.29,0.033,143.5
2023-07-30T01:58:03,42.805,6.029,-0.009,-0.02,-0.064,103.0,101.0,103.0,13.4,1505.2,347.5,-0.8,1.8,2471.419,13.29,0.021,204.2
2023-07-30T02:04:03,42.805,6.029,0.005,-0.015,-0.022,102.0,101.0,101.0,13.4,1505.2,331.2,-0.8,1.8,2471.458,13.28,0.015,161.6
2023-07-30T02:07:03,42.805,6.029,0.014,-0.043,-0.034,103.0,102.0,101.0,13.4,1505.2,353.2,-0.7,1.8,2471.46,13.28,0.045,162.0
2023-07-30T02:10:03,42.805,6.029,0.017,-0.024,-0.027,104.0,102.0,102.0,13.4,1505.2,328.2,-0.8,1.8,2471.441,13.29,0.029,144.7
2023-07-30T02:13:03,42.805,6.029,0.017,-0.042,-0.033,103.0,102.0,102.0,13.4,1505.2,351.8,-0.7,1.8,2471.431,13.29,0.045,158.0
2023-07-30T02:16:03,42.805,6.029,0.0,-0.034,-0.03,104.0,103.0,102.0,13.3,1505.2,333.4,-0.8,1.8,2471.438,13.29,0.034,180.0
2023-07-30T02:19:03,42.805,6.029,0.011,-0.029,-0.053,103.0,102.0,102.0,13.3,1505.2,326.3,-0.8,1.8,2471.437,13.29,0.031,159.2
2023-07-30T02:22:03,42.805,6.029,-0.003,-0.043,-0.033,102.0,104.0,102.0,13.3,1505.2,333.4,-0.8,1.8,2471.445,13.29,0.043,184.0
2023-07-30T02:25:03,42.805,6.029,0.0,-0.06,-0.085,103.0,102.0,102.0,13.4,1505.2,338.0,-0.8,1.8,2471.437,13.29,0.06,180.0
2023-07-30T02:28:03,42.805,6.029,-0.006,-0.017,-0.038,103.0,103.0,102.0,13.4,1505.2,334.8,-0.7,1.8,2471.418,13.29,0.018,199.4
2023-07-30T02:31:03,42.805,6.029,0.008,-0.032,-0.027,103.0,103.0,102.0,13.3,1505.2,347.4,-0.7,1.8,2471.419,13.29,0.032,166.0
2023-07-30T02:34:03,42.805,6.029,-0.005,-0.023,-0.051,103.0,104.0,102.0,13.4,1505.2,344.9,-0.8,1.8,2471.469,13.29,0.023,192.3
2023-07-30T02:37:03,42.805,6.029,-0.014,-0.043,-0.046,104.0,104.0,101.0,13.4,1505.2,353.1,-0.8,1.8,2471.418,13.29,0.045,198.0
2023-07-30T02:40:03,42.805,6.029,0.01,-0.046,-0.059,104.0,104.0,102.0,13.4,1505.2,322.5,-0.8,1.8,2471.451,13.29,0.047,167.7
2023-07-30T02:43:03,42.805,6.029,0.01,-0.04,-0.027,105.0,103.0,102.0,13.3,1505.2,345.9,-0.8,1.8,2471.411,13.29,0.041,166.0
2023-07-30T02:46:03,42.805,6.029,-0.006,-0.036,-0.028,105.0,104.0,102.0,13.4,1505.2,343.8,-0.8,1.8,2471.461,13.29,0.036,189.5
2023-07-30T02:49:03,42.805,6.029,-0.014,-0.028,-0.029,104.0,103.0,103.0,13.4,1505.2,338.6,-0.8,1.8,2471.458,13.29,0.031,206.6
2023-07-30T02:52:03,42.805,6.029,0.013,-0.034,-0.017,105.0,104.0,102.0,13.4,1505.2,323.7,-0.7,1.8,2471.443,13.29,0.036,159.1
2023-07-30T02:55:03,42.805,6.029,0.007,-0.045,-0.058,104.0,104.0,102.0,13.4,1505.2,330.7,-0.7,1.8,2471.418,13.29,0.045,171.2
2023-07-30T02:58:03,42.805,6.029,0.009,-0.031,-0.027,103.0,104.0,103.0,13.4,1505.2,325.2,-0.8,1.8,2471.484,13.29,0.032,163.8
2023-07-30T03:04:03,42.805,6.029,-0.011,-0.032,-0.008,105.0,104.0,102.0,13.4,1505.2,331.3,-0.8,1.8,2471.511,13.28,0.033,199.0
2023-07-30T03:07:03,42.805,6.029,0.003,-0.034,-0.025,104.0,102.0,103.0,13.3,1505.2,332.5,-0.8,1.8,2471.475,13.28,0.034,175.0
2023-07-30T03:10:03,42.805,6.029,-0.008,-0.061,-0.049,104.0,103.0,102.0,13.4,1505.2,354.6,-0.8,1.8,2471.504,13.29,0.061,187.5
2023-07-30T03:13:03,42.805,6.029,-0.001,-0.042,-0.043,104.0,103.0,104.0,13.3,1505.2,338.5,-0.8,1.8,2471.444,13.29,0.042,181.4
2023-07-30T03:16:03,42.805,6.029,-0.016,-0.034,-0.043,104.0,103.0,103.0,13.4,1505.2,347.3,-0.8,1.8,2471.486,13.29,0.037,205.2
2023-07-30T03:19:03,42.805,6.029,-0.012,-0.032,-0.038,104.0,103.0,102.0,13.3,1505.2,342.8,-0.7,1.8,2471.488,13.29,0.034,200.6
2023-07-30T03:22:03,42.805,6.029,-0.01,-0.053,-0.038,103.0,102.0,102.0,13.3,1505.2,345.9,-0.8,1.8,2471.465,13.29,0.053,190.7
2023-07-30T03:25:03,42.805,6.029,0.016,-0.047,-0.043,103.0,103.0,102.0,13.4,1505.2,330.7,-0.7,1.8,2471.488,13.29,0.049,161.2
2023-07-30T03:28:03,42.805,6.029,-0.007,-0.021,-0.044,104.0,102.0,101.0,13.4,1505.2,344.0,-0.8,1.8,2471.461,13.29,0.022,198.4
2023-07-30T03:31:03,42.805,6.029,-0.018,-0.05,-0.043,103.0,103.0,101.0,13.4,1505.2,350.5,-0.8,1.8,2471.463,13.29,0.053,199.8
2023-07-30T03:34:03,42.805,6.029,-0.016,-0.026,-0.014,103.0,103.0,103.0,13.4,1505.2,355.6,-0.8,1.8,2471.433,13.29,0.03,211.6
2023-07-30T03:37:03,42.805,6.029,0.0,-0.023,-0.025,104.0,104.0,101.0,13.4,1505.2,350.1,-0.8,1.8,2471.443,13.29,0.023,180.0
2023-07-30T03:40:03,42.805,6.029,0.011,-0.057,-0.045,103.0,102.0,102.0,13.4,1505.2,347.2,-0.8,1.8,2471.456,13.29,0.058,169.1
2023-07-30T03:43:03,42.805,6.029,-0.002,-0.028,0.001,104.0,103.0,102.0,13.3,1505.2,335.0,-0.8,1.8,2471.487,13.29,0.028,184.1
2023-07-30T03:46:03,42.805,6.029,-0.025,-0.02,-0.077,103.0,103.0,101.0,13.4,1505.2,331.0,-0.8,1.8,2471.466,13.29,0.032,231.3
2023-07-30T03:49:03,42.805,6.029,-0.019,-0.029,-0.02,103.0,104.0,102.0,13.3,1505.2,343.0,-0.8,1.8,2471.425,13.29,0.034,213.2
2023-07-30T03:52:03,42.805,6.029,-0.012,-0.022,-0.073,104.0,102.0,102.0,13.4,1505.2,342.7,-0.8,1.8,2471.491,13.29,0.025,208.6
2023-07-30T03:55:03,42.805,6.029,0.015,-0.02,-0.006,104.0,103.0,102.0,13.4,1505.2,325.2,-0.8,1.8,2471.443,13.29,0.025,143.1
2023-07-30T03:58:03,42.805,6.029,0.009,-0.029,-0.018,104.0,104.0,100.0,13.4,1505.2,326.8,-0.8,1.8,2471.465,13.29,0.03,162.8
2023-07-30T04:04:03,42.805,6.029,-0.006,-0.025,-0.042,102.0,103.0,101.0,13.4,1505.2,321.9,-0.8,1.8,2471.511,13.28,0.025,193.5
2023-07-30T04:07:03,42.805,6.029,-0.018,-0.036,-0.041,104.0,102.0,102.0,13.4,1505.2,327.4,-0.8,1.8,2471.527,13.28,0.04,206.6
2023-07-30T04:10:03,42.805,6.029,0.001,-0.02,-0.036,103.0,103.0,102.0,13.4,1505.2,335.4,-0.8,1.8,2471.503,13.28,0.02,177.1
2023-07-30T04:13:03,42.805,6.029,0.013,-0.027,-0.054,104.0,103.0,101.0,13.4,1505.2,330.7,-0.8,1.8,2471.511,13.29,0.029,154.3
2023-07-30T04:16:03,42.805,6.029,-0.003,-0.012,-0.038,102.0,104.0,102.0,13.4,1505.2,337.3,-0.8,1.8,2471.477,13.29,0.012,194.0
2023-07-30T04:19:03,42.805,6.029,-0.012,-0.05,-0.043,104.0,103.0,102.0,13.4,1505.2,339.7,-0.8,1.8,2471.457,13.29,0.051,193.5
2023-07-30T04:22:03,42.805,6.029,-0.013,-0.038,-0.031,103.0,103.0,102.0,13.4,1505.2,336.3,-0.7,1.8,2471.466,13.29,0.04,198.9
2023-07-30T04:25:03,42.805,6.029,0.015,-0.034,-0.052,103.0,103.0,101.0,13.3,1505.2,330.2,-0.8,1.8,2471.458,13.29,0.037,156.2
2023-07-30T04:28:03,42.805,6.029,-0.007,-0.025,-0.056,103.0,101.0,102.0,13.4,1505.2,343.2,-0.8,1.8,2471.446,13.29,0.025,195.6
2023-07-30T04:31:03,42.805,6.029,-0.017,-0.057,-0.051,104.0,103.0,101.0,13.4,1505.2,351.5,-0.8,1.8,2471.426,13.29,0.059,196.6
2023-07-30T04:34:03,42.805,6.029,-0.005,-0.015,-0.016,104.0,102.0,101.0,13.3,1505.2,322.9,-0.8,1.8,2471.449,13.29,0.015,198.4
2023-07-30T04:37:03,42.805,6.029,-0.013,-0.026,-0.047,101.0,103.0,101.0,13.4,1505.2,333.4,-0.7,1.8,2471.474,13.29,0.029,206.6
2023-07-30T04:40:03,42.805,6.029,-0.007,-0.026,-0.034,103.0,102.0,101.0,13.3,1505.2,339.4,-0.8,1.8,2471.441,13.29,0.026,195.1
2023-07-30T04:43:03,42.805,6.029,0.02,-0.041,-0.065,102.0,103.0,101.0,13.4,1505.2,323.5,-0.8,1.8,2471.479,13.29,0.045,154.0
2023-07-30T04:46:03,42.805,6.029,-0.003,-0.047,-0.077,102.0,104.0,101.0,13.4,1505.2,343.7,-0.8,1.8,2471.461,13.29,0.047,183.6
2023-07-30T04:49:03,42.805,6.029,-0.014,-0.006,-0.028,104.0,103.0,100.0,13.3,1505.2,340.8,-0.8,1.8,2471.501,13.29,0.015,246.8
2023-07-30T04:52:03,42.805,6.029,-0.024,-0.02,-0.041,103.0,102.0,101.0,13.4,1505.2,329.3,-0.7,1.8,2471.466,13.29,0.031,230.2
2023-07-30T04:55:03,42.805,6.029,-0.017,-0.027,-0.033,104.0,102.0,102.0,13.3,1505.2,330.3,-0.8,1.8,2471.456,13.29,0.031,212.2
2023-07-30T04:58:03,42.805,6.029,0.017,-0.03,-0.04,104.0,102.0,102.0,13.3,1505.2,328.6,-0.8,1.8,2471.467,13.29,0.034,150.5
2023-07-30T05:04:03,42.805,6.029,0.01,-0.041,-0.008,103.0,103.0,101.0,13.3,1505.2,332.0,-0.8,1.8,2471.495,13.28,0.042,166.3
2023-07-30T05:07:03,42.805,6.029,0.007,-0.031,-0.046,103.0,102.0,102.0,13.4,1505.2,329.8,-0.8,1.8,2471.52,13.28,0.031,167.3
2023-07-30T05:10:03,42.805,6.029,-0.017,-0.049,-0.075,104.0,102.0,101.0,13.4,1505.2,342.7,-0.7,1.8,2471.493,13.29,0.051,199.1
2023-07-30T05:13:03,42.805,6.029,-0.004,-0.043,-0.053,103.0,104.0,102.0,13.4,1505.2,332.5,-0.7,1.8,2471.523,13.29,0.043,185.3
2023-07-30T05:16:03,42.805,6.029,0.012,-0.04,-0.055,104.0,102.0,100.0,13.3,1505.2,333.0,-0.8,1.8,2471.482,13.29,0.041,163.3
2023-07-30T05:19:03,42.805,6.029,-0.011,-0.049,-0.055,104.0,102.0,102.0,13.4,1505.2,336.4,-0.7,1.8,2471.488,13.29,0.05,192.7
2023-07-30T05:22:03,42.805,6.029,0.007,-0.045,-0.06,103.0,104.0,100.0,13.3,1505.2,324.2,-0.7,1.8,2471.475,13.29,0.045,171.2
2023-07-30T05:25:03,42.805,6.029,-0.031,-0.011,-0.059,104.0,102.0,100.0,13.3,1505.2,347.5,-0.8,1.8,2471.47,13.29,0.032,250.5
2023-07-30T05:28:03,42.805,6.029,-0.022,-0.009,-0.053,102.0,103.0,101.0,13.4,1505.2,352.4,-0.8,1.8,2471.487,13.29,0.023,247.8
2023-07-30T05:31:03,42.805,6.029,0.006,-0.02,-0.028,103.0,102.0,102.0,13.3,1505.2,326.3,-0.8,1.8,2471.455,13.29,0.02,163.3
2023-07-30T05:34:03,42.805,6.029,-0.026,-0.039,-0.037,104.0,102.0,102.0,13.3,1505.2,343.4,-0.7,1.8,2471.44,13.29,0.046,213.7
2023-07-30T05:37:03,42.805,6.029,0.0,-0.021,-0.015,103.0,102.0,102.0,13.4,1505.2,341.2,-0.8,1.8,2471.457,13.29,0.021,180.0
2023-07-30T05:40:03,42.805,6.029,-0.011,-0.022,-0.032,104.0,102.0,102.0,13.3,1505.2,339.3,-0.7,1.8,2471.437,13.29,0.024,206.6
2023-07-30T05:43:03,42.805,6.029,-0.003,-0.042,-0.045,104.0,101.0,102.0,13.4,1505.2,344.2,-0.8,1.8,2471.457,13.29,0.042,184.1
2023-07-30T05:46:03,42.805,6.029,0.019,-0.036,-0.062,103.0,103.0,101.0,13.4,1505.2,333.9,-0.8,1.8,2471.445,13.29,0.04,152.2
2023-07-30T05:49:03,42.805,6.029,-0.007,-0.025,-0.036,104.0,102.0,101.0,13.3,1505.2,333.4,-0.7,1.8,2471.438,13.29,0.025,195.6
2023-07-30T05:52:03,42.805,6.029,-0.002,-0.021,-0.044,102.0,102.0,102.0,13.4,1505.2,333.8,-0.8,1.8,2471.5,13.29,0.021,185.4
2023-07-30T05:55:03,42.805,6.029,-0.036,-0.013,-0.048,102.0,103.0,103.0,13.4,1505.2,352.1,-0.7,1.8,2471.455,13.29,0.038,250.1
2023-07-30T05:58:03,42.805,6.029,-0.017,-0.021,-0.054,103.0,103.0,101.0,13.4,1505.2,341.9,-0.8,1.8,2471.474,13.29,0.027,219.0
2023-07-30T06:04:03,42.805,6.029,-0.013,-0.021,-0.034,103.0,102.0,101.0,13.4,1505.2,353.0,-0.8,1.8,2471.494,13.28,0.024,211.8
2023-07-30T06:07:03,42.805,6.029,0.004,-0.04,-0.048,103.0,103.0,101.0,13.3,1505.2,325.7,-0.7,1.8,2471.495,13.28,0.04,174.3
2023-07-30T06:10:03,42.805,6.029,-0.024,-0.034,-0.04,103.0,102.0,101.0,13.4,1505.2,332.5,-0.8,1.8,2471.511,13.29,0.041,215.2
2023-07-30T06:13:03,42.805,6.029,-0.002,-0.029,-0.039,102.0,103.0,102.0,13.4,1505.2,335.5,-0.8,1.8,2471.464,13.29,0.029,183.9
2023-07-30T06:16:03,42.805,6.029,0.003,-0.032,-0.028,103.0,102.0,101.0,13.4,1505.2,353.1,-0.7,1.8,2471.488,13.29,0.032,174.6
2023-07-30T06:19:03,42.805,6.029,-0.008,-0.013,-0.029,103.0,103.0,101.0,13.4,1505.2,332.5,-0.8,1.9,2471.414,13.29,0.015,211.6
2023-07-30T06:22:03,42.805,6.029,-0.009,-0.042,-0.033,103.0,102.0,102.0,13.4,1505.2,336.0,-0.8,1.8,2471.452,13.29,0.042,192.1
2023-07-30T06:25:03,42.805,6.029,-0.024,-0.024,-0.066,104.0,103.0,101.0,13.4,1505.2,352.8,-0.8,1.8,2471.478,13.29,0.033,225.0
2023-07-30T06:28:03,42.805,6.029,-0.004,-0.042,-0.096,103.0,103.0,102.0,13.4,1505.2,338.8,-0.8,1.8,2471.469,13.29,0.042,185.4
2023-07-30T06:31:03,42.805,6.029,-0.009,-0.005,-0.069,105.0,102.0,101.0,13.4,1505.2,352.0,-0.8,1.9,2471.398,13.29,0.01,240.9
2023-07-30T06:34:03,42.805,6.029,-0.015,-0.026,-0.054,103.0,103.0,101.0,13.4,1505.2,330.3,-0.7,1.8,2471.414,13.29,0.03,210.0
2023-07-30T06:37:03,42.805,6.029,-0.002,-0.033,-0.046,104.0,102.0,102.0,13.3,1505.2,336.6,-0.8,1.8,2471.469,13.29,0.033,183.5
2023-07-30T06:40:03,42.805,6.029,-0.009,-0.012,-0.033,104.0,104.0,101.0,13.4,1505.2,330.7,-0.7,1.8,2471.445,13.29,0.015,216.9
2023-07-30T06:43:03,42.805,6.029,-0.018,-0.023,-0.045,103.0,102.0,102.0,13.3,1505.2,348.4,-0.8,1.8,2471.414,13.29,0.029,218.0
2023-07-30T06:46:03,42.805,6.029,-0.013,-0.027,-0.051,103.0,104.0,101.0,13.4,1505.2,349.9,-0.7,1.8,2471.444,13.29,0.029,205.7
2023-07-30T06:49:03,42.805,6.029,-0.037,-0.013,-0.044,103.0,103.0,101.0,13.4,1505.2,332.9,-0.8,1.8,2471.455,13.29,0.039,250.6
2023-07-30T06:52:03,42.805,6.029,-0.015,-0.02,-0.059,103.0,102.0,102.0,13.4,1505.2,325.5,-0.8,1.8,2471.456,13.29,0.025,216.9
2023-07-30T06:55:03,42.805,6.029,0.0,-0.034,-0.065,103.0,103.0,102.0,13.3,1505.2,326.6,-0.8,1.8,2471.419,13.29,0.034,180.0
2023-07-30T06:58:03,42.805,6.029,-0.012,-0.028,-0.046,104.0,102.0,102.0,13.4,1505.2,329.0,-0.8,1.8,2471.441,13.29,0.03,203.2
2023-07-30T07:04:03,42.805,6.029,-0.009,-0.021,-0.047,103.0,102.0,102.0,13.4,1505.2,327.7,-0.8,1.8,2471.448,13.28,0.022,203.2
2023-07-30T07:07:03,42.805,6.029,-0.009,-0.025,-0.029,102.0,103.0,102.0,13.4,1505.2,333.4,-0.7,1.8,2471.509,13.28,0.026,199.8
2023-07-30T07:10:03,42.805,6.029,0.012,-0.046,-0.04,103.0,102.0,102.0,13.3,1505.2,345.2,-0.8,1.8,2471.478,13.29,0.047,165.4
2023-07-30T07:13:03,42.805,6.029,0.007,-0.031,-0.05,103.0,103.0,102.0,13.4,1505.2,330.3,-0.8,1.8,2471.455,13.29,0.031,167.3
2023-07-30T07:16:03,42.805,6.029,0.0,-0.037,-0.037,103.0,103.0,102.0,13.4,1505.2,333.4,-0.8,1.8,2471.441,13.29,0.037,180.0
2023-07-30T07:19:03,42.805,6.029,-0.009,-0.02,-0.076,103.0,103.0,102.0,13.3,1505.2,343.7,-0.7,1.8,2471.421,13.29,0.021,204.2
2023-07-30T07:22:03,42.805,6.029,0.003,-0.013,-0.019,102.0,102.0,102.0,13.4,1505.2,333.4,-0.7,1.8,2471.384,13.29,0.013,167.0
2023-07-30T07:25:03,42.805,6.029,-0.006,-0.011,-0.023,103.0,103.0,102.0,13.4,1505.2,340.9,-0.8,1.8,2471.393,13.29,0.012,208.6
2023-07-30T07:28:03,42.805,6.029,-0.02,-0.015,-0.046,104.0,101.0,102.0,13.3,1505.2,345.1,-0.8,1.8,2471.422,13.29,0.025,233.1
2023-07-30T07:31:03,42.805,6.029,-0.01,-0.026,-0.045,102.0,103.0,101.0,13.4,1505.2,345.1,-0.7,1.8,2471.404,13.29,0.027,201.0
2023-07-30T07:34:03,42.805,6.029,-0.016,-0.018,-0.042,103.0,103.0,101.0,13.4,1505.2,344.9,-0.7,1.8,2471.433,13.29,0.024,221.6
2023-07-30T07:37:03,42.805,6.029,-0.017,-0.012,-0.057,102.0,102.0,102.0,13.4,1505.2,332.5,-0.8,1.8,2471.428,13.29,0.02,234.8
2023-07-30T07:40:03,42.805,6.029,-0.005,-0.007,-0.031,103.0,103.0,101.0,13.4,1505.2,343.4,-0.8,1.8,2471.419,13.29,0.008,215.5
2023-07-30T07:43:03,42.805,6.029,0.006,-0.037,-0.054,102.0,103.0,101.0,13.4,1505.2,336.9,-0.8,1.8,2471.395,13.29,0.037,170.8
2023-07-30T07:46:03,42.805,6.029,-0.016,-0.024,-0.052,104.0,102.0,101.0,13.4,1505.2,346.7,-0.8,1.8,2471.379,13.29,0.028,213.7
2023-07-30T07:49:03,42.805,6.029,-0.011,-0.03,-0.046,102.0,102.0,103.0,13.4,1505.2,354.2,-0.8,1.8,2471.42,13.29,0.031,200.1
2023-07-30T07:52:03,42.805,6.029,-0.016,0.0,-0.014,103.0,103.0,102.0,13.4,1505.2,347.2,-0.8,1.8,2471.417,13.29,0.016,270.0
2023-07-30T07:55:03,42.805,6.029,0.014,-0.004,-0.014,103.0,102.0,102.0,13.4,1505.2,330.5,-0.8,1.8,2471.412,13.29,0.014,105.9
2023-07-30T07:58:03,42.805,6.029,-0.006,-0.014,-0.042,102.0,102.0,101.0,13.3,1505.2,341.9,-0.7,1.8,2471.413,13.29,0.015,203.2
2023-07-30T08:04:03,42.805,6.029,-0.042,-0.013,-0.014,102.0,101.0,102.0,13.4,1505.2,325.4,-0.8,1.8,2471.454,13.28,0.043,252.8
2023-07-30T08:07:03,42.805,6.029,-0.022,-0.019,-0.059,103.0,102.0,101.0,13.4,1505.2,332.9,-0.8,1.8,2471.437,13.28,0.029,229.2
2023-07-30T08:10:03,42.805,6.029,-0.019,-0.03,-0.07,102.0,103.0,102.0,13.4,1505.2,349.8,-0.8,1.8,2471.429,13.29,0.035,212.3
2023-07-30T08:13:03,42.805,6.029,-0.026,-0.022,-0.048,104.0,102.0,101.0,13.4,1505.2,344.5,-0.7,1.8,2471.405,13.29,0.034,229.8
2023-07-30T08:16:03,42.805,6.029,-0.014,-0.008,-0.022,103.0,102.0,102.0,13.3,1505.2,329.5,-0.8,1.8,2471.352,13.29,0.016,240.3
2023-07-30T08:19:03,42.805,6.029,-0.001,-0.018,-0.045,103.0,101.0,101.0,13.4,1505.2,336.9,-0.8,1.8,2471.405,13.29,0.018,183.2
2023-07-30T08:22:03,42.805,6.029,-0.013,-0.023,-0.051,102.0,103.0,101.0,13.4,1505.2,342.3,-0.8,1.8,2471.352,13.29,0.026,209.5
2023-07-30T08:25:03,42.805,6.029,-0.001,-0.015,-0.073,102.0,102.0,101.0,13.4,1505.2,346.9,-0.8,1.8,2471.372,13.29,0.015,183.8
2023-07-30T08:28:03,42.805,6.029,-0.013,-0.002,-0.041,104.0,103.0,101.0,13.4,1505.2,330.2,-0.8,1.8,2471.39,13.29,0.013,261.3
2023-07-30T08:31:03,42.805,6.029,-0.027,-0.006,-0.044,103.0,102.0,102.0,13.4,1505.2,348.6,-0.8,1.8,2471.396,13.29,0.027,257.5
2023-07-30T08:34:03,42.805,6.029,-0.021,-0.026,-0.048,102.0,102.0,102.0,13.4,1505.2,336.6,-0.7,1.8,2471.407,13.29,0.033,218.9
2023-07-30T08:37:03,42.805,6.029,-0.003,-0.019,-0.049,102.0,103.0,102.0,13.4,1505.2,354.2,-0.8,1.8,2471.373,13.29,0.019,189.0
2023-07-30T08:40:03,42.805,6.029,-0.016,-0.015,-0.018,102.0,104.0,102.0,13.4,1505.2,327.5,-0.7,1.8,2471.401,13.29,0.021,226.9
2023-07-30T08:43:03,42.805,6.029,-0.02,-0.027,-0.03,103.0,102.0,102.0,13.3,1505.2,330.7,-0.8,1.8,2471.377,13.29,0.033,216.5
2023-07-30T08:46:03,42.805,6.029,-0.019,-0.02,-0.051,102.0,102.0,101.0,13.4,1505.2,347.4,-0.8,1.8,2471.361,13.29,0.027,223.5
2023-07-30T08:49:03,42.805,6.029,-0.016,-0.002,-0.033,103.0,102.0,102.0,13.4,1505.2,345.2,-0.8,1.8,2471.358,13.29,0.016,262.9
2023-07-30T08:52:03,42.805,6.029,-0.018,-0.014,-0.051,103.0,102.0,102.0,13.4,1505.2,347.0,-0.7,1.8,2471.353,13.29,0.022,232.1
2023-07-30T08:55:03,42.805,6.029,-0.02,-0.015,0.009,102.0,103.0,102.0,13.4,1505.2,348.9,-0.8,1.8,2471.365,13.29,0.025,233.1
2023-07-30T08:58:03,42.805,6.029,0.011,-0.025,-0.05,104.0,102.0,102.0,13.4,1505.2,327.3,-0.8,1.8,2471.385,13.29,0.027,156.3
2023-07-30T09:04:03,42.805,6.029,-0.01,-0.012,-0.045,102.0,102.0,101.0,13.4,1505.2,352.8,-0.8,1.8,2471.426,13.28,0.015,219.8
2023-07-30T09:07:03,42.805,6.029,-0.021,-0.01,-0.028,104.0,103.0,102.0,13.4,1505.2,345.3,-0.8,1.8,2471.391,13.28,0.023,244.5
2023-07-30T09:10:03,42.805,6.029,-0.003,-0.025,-0.023,103.0,103.0,102.0,13.4,1505.2,327.1,-0.7,1.8,2471.418,13.29,0.025,186.8
2023-07-30T09:13:03,42.805,6.029,-0.019,-0.013,-0.051,103.0,103.0,101.0,13.4,1505.2,334.3,-0.8,1.8,2471.401,13.29,0.023,235.6
2023-07-30T09:16:03,42.805,6.029,-0.016,-0.032,-0.034,103.0,102.0,103.0,13.4,1505.2,340.9,-0.8,1.8,2471.396,13.29,0.035,206.6
2023-07-30T09:19:03,42.805,6.029,0.003,-0.015,0.003,103.0,102.0,102.0,13.4,1505.2,335.1,-0.8,1.8,2471.369,13.29,0.015,168.7
2023-07-30T09:22:03,42.805,6.029,-0.031,-0.021,-0.027,103.0,102.0,103.0,13.3,1505.2,336.3,-0.8,1.9,2471.351,13.29,0.037,235.9
2023-07-30T09:25:03,42.805,6.029,-0.017,-0.019,-0.036,103.0,104.0,101.0,13.3,1505.2,346.2,-0.7,1.8,2471.367,13.29,0.025,221.8
2023-07-30T09:28:03,42.805,6.029,0.0,-0.015,-0.003,104.0,102.0,102.0,13.4,1505.2,332.5,-0.8,1.8,2471.304,13.29,0.015,180.0
2023-07-30T09:31:03,42.805,6.029,-0.025,-0.006,-0.055,103.0,103.0,102.0,13.4,1505.2,340.8,-0.8,1.8,2471.376,13.29,0.025,256.5
2023-07-30T09:34:03,42.805,6.029,-0.013,-0.024,-0.039,103.0,103.0,101.0,13.4,1505.2,354.2,-0.7,1.8,2471.322,13.29,0.027,208.4
2023-07-30T09:37:03,42.805,6.029,-0.006,-0.015,-0.012,103.0,103.0,101.0,13.3,1505.2,327.4,-0.8,1.8,2471.329,13.29,0.016,201.8
2023-07-30T09:40:03,42.805,6.029,-0.021,-0.032,-0.005,103.0,103.0,102.0,13.4,1505.2,332.5,-0.8,1.8,2471.394,13.29,0.038,213.3
2023-07-30T09:43:03,42.805,6.029,-0.028,-0.018,-0.063,103.0,102.0,102.0,13.4,1505.2,346.2,-0.7,1.8,2471.34,13.29,0.033,237.3
2023-07-30T09:46:03,42.805,6.029,-0.023,-0.007,-0.05,103.0,103.0,102.0,13.3,1505.2,346.4,-0.8,1.8,2471.36,13.29,0.024,253.1
2023-07-30T09:49:03,42.805,6.029,-0.047,-0.004,-0.036,104.0,102.0,102.0,13.3,1505.2,341.9,-0.8,1.8,2471.314,13.29,0.047,265.1
2023-07-30T09:52:03,42.805,6.029,-0.032,0.002,-0.023,103.0,102.0,102.0,13.4,1505.2,347.7,-0.8,1.8,2471.326,13.29,0.032,273.6